CAPE
175 180 214 99 124 18 243 29 1 0 0 0 0 0 0 0 0 0 0 0 0 0 4 16 12 7 1 0 1 1 1 0 0 0 0 0 0 1 3 5 10 16 32
310 165 305 126 112 74 102 30 22 0 0 0 0 0 0 0 0 0 0 0 0 0 0 5 51 36 18 8 11 9 9 6 4 4 7 17 35 42 52 56 52 51 59
50 225 267 372 234 141 31 4 67 1 1 0 0 0 0 0 0 0 0 0 0 0 0 1 32 60 65 68 13 11 19 60 104 77 55 85 105 94 82 80 75 56 4
0 0 19 291 373 292 97 20 38 2 0 1 0 0 0 0 0 0 0 0 0 0 0 0 75 155 157 108 73 10 15 194 268 192 146 120 76 47 44 45 64 59 1
0 0 0 0 190 407 296 121 9 17 10 3 0 0 0 0 0 0 0 0 0 0 0 0 0 0 65 162 83 97 43 55 236 254 265 135 108 68 24 25 59 50 1
0 0 0 0 12 120 367 283 132 1 14 6 1 1 0 0 0 0 0 0 0 0 0 0 0 0 0 0 0 16 73 140 283 321 294 206 115 120 24 16 42 22 10
0 0 0 0 0 0 14 323 282 126 1 0 1 1 0 0 0 0 0 0 0 0 0 0 0 0 0 0 0 0 26 63 130 338 341 247 115 144 54 24 20 17 23
0 0 0 0 0 0 0 19 252 229 39 1 0 0 0 0 0 0 0 0 0 0 0 0 0 0 0 0 0 0 0 9 42 111 201 282 172 149 124 106 49 26 33
0 0 0 0 0 0 0 0 7 172 140 36 0 7 0 0 0 0 0 0 0 0 0 0 0 0 0 0 0 0 0 0 15 73 104 136 307 176 166 174 135 118 84
0 0 0 0 0 0 0 0 0 27 37 140 0 4 4 0 0 0 0 0 0 0 0 0 0 0 0 0 0 0 0 0 0 27 86 113 164 163 180 170 200 215 202
0 0 0 0 0 0 0 0 0 0 10 19 3 0 0 0 0 0 0 0 0 0 0 0 0 0 0 0 0 0 0 0 0 12 96 134 171 172 166 252 349 200 313
0 0 0 0 0 0 0 0 0 0 0 0 3 22 28 0 1 0 0 0 0 0 0 0 0 0 0 0 0 0 0 0 0 11 118 186 223 241 171 222 238 289 390
0 0 0 0 0 0 0 0 0 0 12 3 0 4 14 27 40 21 4 8 1 0 0 0 0 0 0 0 0 0 0 0 0 0 49 155 264 226 223 249 283 270 428
0 0 0 0 0 0 0 0 0 39 53 43 27 24 13 0 17 24 19 30 25 4 0 0 0 0 0 0 0 0 0 0 0 0 1 51 76 44 68 137 220 184 186
0 0 0 0 0 0 0 0 0 1 36 35 50 46 50 45 23 28 18 42 47 32 7 0 0 0 0 0 0 0 0 0 0 0 0 0 0 0 0 0 23 73 75
0 0 0 0 0 0 0 0 0 0 0 0 10 30 25 31 34 16 17 30 40 49 25 1 0 0 0 0 0 0 0 0 0 0 0 0 0 0 0 0 4 9 9
0 0 0 0 0 0 0 0 0 0 0 0 0 0 11 18 25 26 31 23 16 45 30 2 5 0 0 0 0 0 0 0 2 0 0 0 0 0 0 0 0 0 0
0 0 0 0 0 0 0 0 0 0 0 0 0 0 0 5 9 19 35 43 55 56 80 43 8 9 0 0 0 0 0 0 0 0 0 0 0 0 0 0 0 0 0
0 0 0 0 0 0 0 0 0 0 0 0 0 0 0 0 0 0 27 52 62 59 58 55 16 40 43 0 0 0 0 0 0 0 0 1 1 0 0 0 0 0 0
0 0 0 0 0 0 0 0 0 0 0 0 0 0 0 0 0 0 0 0 41 74 96 82 73 69 62 39 5 30 0 0 0 1 0 0 0 0 0 0 0 0 1
0 0 0 0 0 0 0 0 0 0 0 0 0 0 0 0 0 0 0 1 55 123 135 91 56 76 41 0 0 0 0 0 0 0 0 0 0 0 0 0 0 0 0
0 0 0 0 0 0 2 0 0 0 0 0 0 0 0 0 0 0 0 0 0 13 140 112 115 66 13 0 0 0 0 1 1 0 0 0 0 0 0 0 0 0 0
0 1 1 1 1 3 3 3 1 0 0 0 0 0 0 0 0 0 1 1 2 2 3 1 1 2 0 1 0 0 0 0 0 0 0 0 0 0 0 0 0 0 0
0 0 0 0 1 3 3 2 1 0 1 1 1 1 1 1 0 0 0 0 3 4 6 5 6 6 4 1 1 1 0 0 0 0 0 0 0 0 0 0 1 1 0
0 0 0 0 0 1 5 1 0 0 1 1 2 2 2 2 4 2 0 1 2 3 7 8 6 5 5 3 1 0 0 0 0 0 0 0 0 0 0 0 0 0 0
0 0 0 0 0 0 5 4 0 0 0 1 1 1 7 4 6 3 0 1 1 1 0 0 0 0 0 0 2 1 0 0 0 0 0 0 0 0 0 0 0 0 0
CIN
-33 -20 -23 -58 -46 -100 -21 -95 -5 -0 -0 -0 -0 -0 -0 -0 -0 -0 -0 -0 -0 -0 -0 -0 -0 -0 -0 -0 -0 -0 -0 -0 -0 -0 -0 -0 -0 -0 -0 -0 -0 -0 -0
-18 -34 -3 -34 -47 -60 -40 -73 -96 -0 -0 -0 -0 -0 -0 -0 -0 -0 -0 -0 -0 -0 -0 -0 -49 -67 -79 -0 -0 -0 -0 -0 -0 -0 -0 -0 -0 -0 -0 -0 -0 -0 -0
-91 -26 -9 -7 -24 -33 -70 -47 -38 -0 -0 -0 -0 -0 -0 -0 -0 -0 -0 -0 -0 -0 -0 -3 -38 -33 -41 -55 -0 -0 -2 -62 -50 -0 -10 -32 -29 -66 -0 -0 -0 -0 -0
-0 -0 -30 -2 -5 -8 -43 -74 -52 -0 -0 -0 -0 -0 -0 -0 -0 -0 -0 -0 -0 -0 -0 -0 -24 -2 -4 -13 -20 -0 -0 -8 -2 -12 -26 -24 -32 -1 -0 -0 -0 -0 -0
-0 -0 -0 -0 -8 -0 -7 -41 -102 -66 -69 -44 -0 -0 -0 -0 -0 -0 -0 -0 -0 -0 -0 -0 -0 -0 -22 -1 -7 -8 -4 -1 -3 -4 -3 -13 -19 -26 -0 -0 -0 -0 -0
-0 -0 -0 -0 -7 -11 -0 -6 -44 -5 -94 -115 -0 -0 -0 -0 -0 -0 -0 -0 -0 -0 -0 -0 -0 -0 -0 -0 -0 -2 -3 -0 -0 -1 -3 -13 -5 -9 -0 -0 -0 -0 -0
-0 -0 -0 -0 -0 -0 -14 -0 -2 -19 -0 -0 -0 -0 -0 -0 -0 -0 -0 -0 -0 -0 -0 -0 -0 -0 -0 -0 -0 -0 -13 -6 -0 -0 -0 -13 -1 -0 -0 -0 -0 -0 -0
-0 -0 -0 -0 -0 -0 -0 -8 -3 -14 -47 -24 -22 -18 -0 -0 -0 -0 -0 -0 -0 -0 -0 -0 -0 -0 -0 -0 -0 -0 -0 -10 -8 -0 -0 -5 -4 -0 -0 -0 -4 -3 -8
-0 -0 -0 -0 -0 -0 -0 -0 -7 -4 -13 -50 -0 -41 -0 -0 -0 -0 -0 -0 -0 -0 -0 -0 -0 -0 -0 -0 -0 -0 -0 -0 -29 -9 -0 -0 -1 -0 -0 -0 -0 -0 -2
-0 -0 -0 -0 -0 -0 -0 -0 -0 -1 -3 -0 -0 -26 -67 -0 -0 -0 -0 -0 -0 -0 -0 -0 -0 -0 -0 -0 -0 -0 -0 -0 -0 -18 -9 -0 -0 -0 -0 -0 -0 -0 -0
-0 -0 -0 -0 -0 -0 -0 -0 -0 -0 -2 -1 -2 -0 -0 -1 -0 -0 -0 -0 -0 -0 -0 -0 -0 -0 -0 -0 -0 -0 -0 -0 -0 -22 -13 -2 -1 -0 -0 -5 -0 -0 -1
-0 -0 -0 -0 -0 -0 -0 -0 -0 -0 -0 -0 -1 -4 -2 -7 -0 -0 -0 -0 -0 -0 -0 -0 -0 -0 -0 -0 -0 -0 -0 -0 -19 -81 -17 -3 -21 -7 -0 -1 -5 -12 -4
-0 -0 -0 -0 -0 -0 -0 -0 -0 -0 -1 -0 -0 -1 -8 -9 -12 -15 -9 -0 -4 -0 -0 -0 -0 -0 -0 -0 -0 -0 -0 -0 -0 -0 -39 -5 -1 -5 -0 -2 -24 -19 -0
-0 -0 -0 -0 -0 -0 -0 -0 -0 -0 -3 -4 -3 -10 -5 -0 -24 -19 -12 -2 -0 -9 -12 -0 -0 -0 -0 -0 -0 -0 -0 -0 -0 -0 -7 -42 -28 -43 -40 -15 -13 -18 -21
-0 -0 -0 -0 -0 -0 -0 -0 -0 -1 -6 -12 -16 -25 -17 -14 -32 -21 -27 -18 -8 -0 -5 -0 -0 -0 -0 -0 -0 -0 -0 -0 -0 -0 -0 -0 -0 -0 -0 -0 -53 -48 -17
-0 -0 -0 -0 -0 -0 -0 -0 -0 -0 -0 -0 -20 -36 -44 -41 -41 -49 -33 -16 -8 -0 -0 -5 -0 -0 -0 -0 -0 -0 -0 -0 -0 -0 -0 -0 -0 -0 -0 -0 -71 -92 -97
-0 -0 -0 -0 -0 -0 -0 -0 -0 -0 -0 -0 -0 -3 -51 -51 -36 -29 -19 -5 -6 -2 -2 -1 -4 -0 -0 -0 -0 -0 -0 -0 -144 -0 -0 -0 -0 -0 -0 -0 -0 -0 -0
-0 -0 -0 -0 -0 -0 -0 -0 -0 -0 -0 -0 -0 -0 -0 -66 -54 -46 -35 -23 -9 -7 -6 -0 -4 -9 -0 -0 -0 -0 -0 -0 -0 -0 -0 -0 -0 -0 -0 -0 -0 -0 -0
-0 -0 -0 -0 -0 -0 -0 -0 -0 -0 -0 -0 -0 -0 -0 -0 -0 -0 -53 -28 -26 -27 -24 -4 -6 -29 -13 -0 -0 -0 -0 -0 -0 -0 -0 -0 -0 -0 -0 -0 -0 -0 -0
-0 -0 -0 -0 -0 -0 -0 -0 -0 -0 -0 -0 -0 -0 -0 -0 -0 -0 -0 -0 -30 -17 -16 -11 -4 -16 -20 -60 -51 -32 -0 -0 -0 -0 -0 -0 -0 -0 -0 -0 -0 -0 -0
-0 -0 -0 -0 -0 -0 -0 -0 -0 -0 -0 -0 -0 -0 -0 -0 -0 -0 -0 -36 -28 -4 -0 -1 -9 -2 -2 -0 -0 -0 -0 -0 -0 -0 -0 -0 -0 -0 -0 -0 -0 -0 -0
-0 -0 -0 -0 -0 -0 -0 -0 -0 -0 -0 -0 -0 -0 -0 -0 -1 -0 -0 -0 -0 -36 -0 -0 -0 -5 -27 -0 -0 -0 -0 -0 -0 -0 -0 -0 -0 -0 -0 -0 -0 -0 -0
-0 -0 -0 -0 -0 -0 -0 -0 -0 -1 -0 -2 -1 -1 -0 -0 -0 -0 -0 -0 -0 -0 -0 -0 -0 -0 -0 -0 -0 -0 -0 -0 -0 -0 -0 -0 -0 -0 -0 -0 -0 -0 -0
-0 -0 -0 -0 -0 -0 -0 -0 -0 -0 -0 -0 -0 -0 -0 -0 -0 -0 -0 -0 -0 -0 -0 -0 -0 -0 -0 -0 -0 -0 -0 -0 -0 -0 -0 -0 -0 -0 -0 -0 -0 -0 -0
-0 -0 -0 -0 -0 -0 -0 -0 -0 -0 -0 -0 -0 -0 -0 -0 -0 -0 -0 -0 -0 -0 -0 -0 -0 -0 -0 -0 -0 -0 -0 -0 -0 -0 -0 -0 -0 -0 -0 -0 -0 -0 -0
-0 -0 -0 -0 -0 -0 -0 -0 -0 -0 -0 -0 -0 -0 -0 -0 -0 -0 -0 -0 -0 -0 -0 -0 -0 -0 -0 -0 -0 -0 -0 -0 -0 -0 -0 -0 -0 -0 -0 -0 -0 -0 -0
Wind_Speed
5 4 4 4 5 4 5 6 5 4 5 5 5 5 6 6 6 3 3 9 11 12 14 13 13 12 12 11 11 10 10 10 10 11 11 11 10 10 10 9 9 8 8
4 5 6 6 6 6 7 7 7 7 5 4 5 6 6 6 6 6 4 5 12 13 14 15 14 14 13 13 13 12 12 12 13 13 13 12 12 13 12 12 11 10 9
4 5 5 7 7 6 7 8 7 6 5 4 7 5 5 6 5 6 5 4 5 11 13 16 16 15 15 14 14 14 13 15 15 14 15 14 13 11 13 13 12 10 8
6 5 4 6 7 7 6 6 7 8 8 7 7 7 6 5 6 7 5 5 5 5 9 15 15 16 16 16 16 15 15 13 13 12 11 11 9 8 10 12 11 9 8
6 5 4 4 7 6 7 7 7 8 6 7 8 6 5 6 7 6 8 7 7 7 6 9 15 15 14 16 17 17 16 15 12 10 11 11 10 10 10 12 10 9 9
6 5 5 6 5 6 7 7 9 7 8 8 7 8 7 6 6 7 8 7 6 8 7 7 6 8 15 16 18 18 18 18 15 13 11 10 11 12 10 11 10 9 11
7 6 5 5 5 7 8 8 8 10 7 6 4 6 7 7 8 8 6 6 8 8 8 8 6 5 6 15 17 19 20 19 18 15 13 13 13 13 11 12 11 13 14
7 6 6 6 6 6 7 7 10 7 6 7 5 3 3 3 8 10 8 9 11 8 9 9 9 9 8 6 9 16 18 20 20 19 16 14 15 15 15 17 17 17 16
7 7 7 6 6 6 7 7 7 9 8 7 12 4 2 5 2 2 10 9 11 8 9 8 10 11 10 9 9 11 16 17 19 20 19 18 16 16 17 19 18 18 17
8 8 8 7 7 6 8 7 7 7 7 8 3 8 6 1 3 3 3 3 5 7 9 7 8 9 10 9 11 13 14 17 20 20 19 18 18 18 18 19 18 19 19
7 8 8 7 6 5 6 8 8 8 6 8 6 2 8 7 3 3 7 3 1 4 5 6 7 7 9 9 8 11 17 18 20 20 20 19 18 19 19 20 18 17 19
5 8 9 7 6 6 6 6 8 10 9 7 7 8 6 3 6 6 7 8 7 5 3 5 7 8 8 8 10 13 15 19 20 20 20 20 18 18 19 20 18 17 16
4 8 8 7 5 7 7 7 7 9 8 8 8 7 6 8 6 3 6 7 6 4 4 8 10 8 7 7 8 12 13 17 17 18 18 18 17 14 15 18 19 18 16
7 8 7 6 6 6 6 6 6 6 6 7 9 6 5 5 6 7 7 7 8 7 5 6 4 6 6 6 7 12 9 16 14 15 15 13 13 11 11 13 19 20 16
6 6 6 6 6 6 7 6 6 6 6 6 6 7 7 6 5 6 6 7 8 10 9 5 5 6 6 6 8 8 8 11 14 15 16 15 14 13 11 11 15 14 14
6 6 6 6 6 6 6 6 5 5 6 5 5 6 6 4 5 5 6 6 7 10 12 4 5 5 5 5 9 11 10 13 16 15 17 14 13 13 15 14 17 17 15
5 6 6 6 6 6 6 5 6 6 6 5 5 6 6 5 4 5 6 7 8 8 12 10 9 5 6 8 6 8 10 11 10 17 16 13 13 11 14 15 16 16 14
4 5 5 5 5 6 6 5 5 4 4 4 5 4 6 3 6 5 5 9 9 10 9 15 10 8 8 8 10 11 10 9 9 9 11 10 9 13 15 14 14 12 12
5 5 5 5 5 5 5 5 5 5 5 6 6 6 7 6 6 5 6 7 7 8 8 9 11 7 7 4 5 8 9 10 7 8 10 10 10 10 11 10 13 12 13
7 7 5 5 5 5 4 5 4 5 6 6 6 6 6 7 8 7 7 9 8 8 8 9 9 9 8 6 4 8 6 6 7 4 7 6 5 5 4 8 7 6 7
7 7 7 6 6 5 6 8 8 8 7 7 6 6 6 7 9 8 5 8 8 8 8 9 8 7 9 4 5 4 7 4 3 2 2 3 2 2 3 4 1 3 3
8 7 8 7 7 5 11 12 10 8 8 8 9 8 5 6 6 10 13 14 13 13 11 9 8 8 11 3 2 3 3 3 3 1 3 1 3 2 2 1 6 7 6
7 7 8 7 6 6 13 12 12 5 3 4 6 6 6 3 4 3 9 9 9 10 9 3 5 5 4 6 3 1 0 2 2 2 2 1 2 3 3 4 11 10 8
6 6 7 8 7 7 15 15 13 7 7 8 8 8 8 8 7 1 4 6 8 9 8 8 9 9 8 7 6 4 4 3 3 4 5 0 2 2 2 3 9 10 11
5 5 5 7 8 8 14 13 8 7 8 9 10 13 10 10 16 11 6 6 5 7 14 20 20 20 20 21 17 4 5 4 3 3 6 3 3 3 3 2 3 10 8
4 4 5 6 9 7 15 14 8 4 6 5 7 9 18 14 19 17 9 7 7 6 7 8 8 11 12 13 18 9 5 3 2 3 5 4 5 4 4 1 2 3 4
Wind_Direction
219 235 224 222 222 211 219 223 224 221 218 225 223 226 224 226 238 240 235 237 233 234 243 228 222 225 228 231 233 235 238 243 244 244 248 252 259 265 269 272 275 278 282
236 211 227 221 233 215 221 229 226 228 226 209 235 223 230 231 227 237 238 245 239 231 236 240 235 231 232 235 238 241 243 248 250 249 248 251 252 257 258 262 264 273 289
260 252 230 222 218 219 223 229 227 215 217 214 238 236 223 224 247 240 232 231 241 237 233 240 243 240 239 241 246 248 245 242 244 252 255 257 255 256 268 267 263 266 267
281 284 264 265 226 212 205 217 222 233 230 223 233 234 231 212 219 244 240 229 219 226 234 232 239 245 243 244 247 252 255 250 251 250 244 247 248 257 268 274 260 255 252
256 257 266 258 264 236 212 209 214 218 227 227 231 233 226 228 236 232 237 234 221 223 218 227 227 234 239 245 249 253 258 262 264 237 235 248 251 256 265 268 256 239 242
250 240 244 252 261 251 249 220 214 209 222 229 227 234 236 227 229 232 238 238 227 224 223 221 221 232 232 239 246 251 255 259 264 266 257 251 258 251 257 258 249 230 241
247 239 239 242 245 252 252 247 226 217 214 209 233 234 243 235 230 231 229 232 236 229 217 223 224 230 231 229 234 242 249 254 258 260 261 258 258 255 248 248 239 237 241
246 243 232 242 237 245 255 250 240 230 217 188 199 234 268 247 236 225 219 228 232 222 227 219 220 223 227 226 227 229 235 244 252 257 258 256 253 253 246 245 235 231 230
239 233 230 225 236 237 241 245 249 238 235 197 207 185 216 219 237 192 226 224 227 217 228 217 217 222 224 227 225 231 229 233 241 249 254 256 254 253 254 249 249 245 238
241 239 234 229 228 231 240 243 245 244 231 256 216 224 235 171 201 288 249 238 236 232 240 236 228 228 223 223 221 224 218 225 236 243 247 252 255 256 259 257 247 248 246
236 242 234 229 226 224 230 236 243 236 233 233 225 216 225 219 215 226 268 300 264 234 233 235 246 235 233 226 227 230 220 225 235 243 247 248 254 260 261 259 259 253 251
236 239 239 226 225 228 224 234 246 243 238 231 230 232 218 211 198 208 243 244 248 251 219 246 237 238 233 224 229 230 220 225 233 239 244 246 248 255 266 269 265 266 264
227 244 233 228 221 222 224 227 237 244 237 234 228 232 227 230 224 227 248 252 236 234 238 223 226 223 228 222 229 225 220 229 229 233 239 247 250 245 253 262 266 264 263
237 233 233 229 232 234 235 229 235 241 238 230 236 225 229 212 202 218 228 241 268 238 218 244 219 214 214 217 216 216 228 219 209 223 242 248 255 253 245 247 256 257 261
248 236 236 236 232 240 241 234 225 219 219 228 234 231 230 230 208 219 217 217 231 266 263 225 234 218 212 192 211 215 209 216 202 213 221 224 237 247 250 260 264 269 258
251 257 246 239 238 233 239 230 228 231 227 223 219 219 222 213 209 208 214 224 232 244 262 224 242 231 214 210 202 207 221 216 218 218 228 231 224 230 238 244 250 249 250
265 259 249 248 249 246 245 245 232 220 216 227 226 220 230 219 218 213 216 237 245 243 260 265 264 243 222 225 225 217 220 217 231 224 229 218 220 229 237 238 242 248 253
287 263 269 268 264 250 237 229 236 234 225 242 252 241 246 239 240 230 229 232 231 235 242 264 258 252 229 220 229 222 225 229 232 218 209 196 204 232 243 245 249 257 264
311 302 273 260 260 262 265 257 250 255 246 242 243 240 239 229 242 231 230 241 242 244 241 250 257 254 249 217 227 235 235 234 228 215 221 224 229 231 238 253 258 253 248
23 17 4 352 351 337 345 343 322 284 263 253 254 253 254 236 240 234 235 239 241 243 247 252 256 256 249 233 229 250 236 223 232 204 214 209 209 221 253 250 258 266 255
30 24 25 34 29 23 25 355 334 318 308 305 284 263 256 254 256 265 267 258 245 244 252 251 251 256 252 230 216 216 236 202 209 173 212 204 171 139 203 221 222 274 258
18 24 22 20 22 14 354 346 333 305 302 303 304 309 302 304 305 290 283 257 262 265 259 255 262 259 257 221 251 273 209 164 228 53 159 199 160 147 107 84 57 17 10
15 24 19 13 14 10 1 4 354 323 297 320 326 322 313 331 341 67 62 50 45 30 29 324 307 350 12 359 344 253 114 48 17 28 349 217 57 63 47 38 34 7 20
19 19 21 20 20 14 17 18 20 28 40 36 28 13 7 -0 350 61 92 65 42 43 37 62 60 47 41 16 35 16 25 19 66 64 357 139 22 84 28 43 24 53 50
18 23 27 23 20 15 20 31 44 56 53 43 38 32 31 28 27 34 53 68 63 59 51 58 65 53 43 42 40 25 21 29 21 18 15 348 10 19 19 19 22 30 36
18 18 34 26 26 16 24 40 49 61 61 49 47 40 38 45 45 50 51 46 50 34 34 35 25 40 40 33 32 41 15 51 14 23 1 27 1 12 346 355 10 2 348